College Park, MD

12:50 AM EST on December 16, 2019 (GMT -0500)
College Park

Weather History for KCGS - November, 2019

Change the Weather History Date:

Tuesday, November 12, 2019

  Actual Average Record
Temperature  
Mean Temperature 44 °F -  
Max Temperature 59 °F 57 °F 75 °F (1985)
Min Temperature 29 °F 38 °F 17 °F (1957)
Degree Days  
Heating Degree Days 21    
Moisture  
Dew Point 25 °F    
Average Humidity 52    
Maximum Humidity 79    
Minimum Humidity 38    
Precipitation  
Precipitation 0.00 in - - ()
Sea Level Pressure  
Sea Level Pressure 29.99 in    
Wind  
Wind Speed 7 mph (NW)    
Max Wind Speed 20 mph    
Max Gust Speed 26 mph    
Visibility 10 miles    
Events      
Averages and records for this station are not official NWS values.
T = Trace of Precipitation, MM = Missing Value Source: NWS Daily Summary

Daily Weather History Graph

Daily Weather History Graph

Search for Another Location

Airport or City:

Astronomy

Nov. 12, 2019 Rise Set
Actual Time 6:46 AM EST 4:56 PM EST
Civil Twilight 6:18 AM EST 5:24 PM EST
Nautical Twilight 5:46 AM EST 5:56 PM EST
Astronomical Twilight 5:15 AM EST 6:28 PM EST
Moon 5:21 PM EST (11/12) 6:36 AM EST (11/12)
Length of Visible Light 11h 05m
Length of Day
10h 09m
Full, 100% of the Moon is Illuminated
Nov 12
Full
Nov 19
Last Quarter
Nov 26
New
Dec 4
First Quarter
Dec 12
Full

Hourly Weather History & Observations

Time (EST) Temp. Windchill Dew Point Humidity Pressure Visibility Wind Dir Wind Speed Gust Speed Precip Events Conditions
12:03 AM 59.4 °F - 36.1 °F 42% 29.79 in 10.0 mi South 5.8 mph - N/A   Clear
12:23 AM 59.4 °F - 36.0 °F 42% 29.78 in 10.0 mi South 6.9 mph - N/A   Clear
12:43 AM 59.0 °F - 36.0 °F 42% 29.77 in 10.0 mi South 6.9 mph - N/A   Clear
1:03 AM 59.0 °F - 36.0 °F 42% 29.77 in 10.0 mi SSW 5.8 mph - N/A   Clear
1:23 AM 58.5 °F - 36.1 °F 43% 29.72 in 10.0 mi SE 3.5 mph - N/A   Scattered Clouds
1:43 AM 58.5 °F - 36.5 °F 44% 29.76 in 10.0 mi SSW 5.8 mph - N/A   Scattered Clouds
2:03 AM 58.5 °F - 36.7 °F 44% 29.76 in 10.0 mi SSW 5.8 mph - N/A   Clear
2:23 AM 58.1 °F - 37.2 °F 46% 29.76 in 10.0 mi SSW 5.8 mph - N/A   Clear
3:03 AM 57.6 °F - 37.4 °F 47% 29.75 in 10.0 mi SW 5.8 mph - N/A   Mostly Cloudy
3:23 AM 57.4 °F - 38.3 °F 49% 29.76 in 10.0 mi SW 4.6 mph - N/A   Overcast
3:43 AM 56.3 °F - 40.3 °F 55% 29.76 in 10.0 mi Calm Calm - N/A   Overcast
4:03 AM 54.7 °F - 41.9 °F 62% 29.76 in 10.0 mi Calm Calm - N/A   Overcast
4:23 AM 53.8 °F - 43.2 °F 67% 29.77 in 10.0 mi Calm Calm - N/A   Overcast
4:43 AM 53.1 °F - 44.2 °F 72% 29.78 in 10.0 mi Calm Calm - N/A   Overcast
5:03 AM 52.7 °F - 45.0 °F 75% 29.78 in 10.0 mi Calm Calm - N/A   Overcast
5:43 AM 51.8 °F - 45.3 °F 79% 29.80 in 10.0 mi West 3.5 mph - N/A   Overcast
6:03 AM 51.1 °F - 44.4 °F 78% 29.81 in 10.0 mi West 8.1 mph - N/A   Overcast
6:43 AM 49.6 °F - 42.8 °F 77% 29.84 in 10.0 mi West 5.8 mph - N/A   Overcast
7:03 AM 48.9 °F - 41.0 °F 74% 29.85 in 10.0 mi NW 10.4 mph 23.0 mph N/A   Overcast
7:23 AM 47.5 °F - 38.5 °F 71% 29.87 in 10.0 mi NW 8.1 mph 21.9 mph N/A   Overcast
7:43 AM 46.2 °F 40.1 °F 35.4 °F 66% 29.88 in 10.0 mi NW 13.8 mph 19.6 mph N/A   Overcast
8:03 AM 44.6 °F 39.7 °F 30.6 °F 58% 29.90 in 10.0 mi NW 9.2 mph 21.9 mph N/A   Overcast
8:23 AM 43.9 °F 37.5 °F 28.4 °F 55% 29.92 in 10.0 mi NW 12.7 mph 20.7 mph N/A   Overcast
8:43 AM 43.2 °F 38.4 °F 28.6 °F 56% 29.94 in 10.0 mi NW 8.1 mph 17.3 mph N/A   Overcast
9:03 AM 43.0 °F 36.8 °F 27.5 °F 54% 29.94 in 10.0 mi NW 11.5 mph 23.0 mph N/A   Overcast
9:23 AM 42.8 °F 37.0 °F 27.0 °F 54% 29.96 in 10.0 mi WNW 10.4 mph 19.6 mph N/A   Overcast
9:43 AM 42.3 °F 33.6 °F 25.5 °F 52% 29.98 in 10.0 mi NW 19.6 mph 26.5 mph N/A   Overcast
10:23 AM 40.6 °F 33.0 °F 27.0 °F 58% 30.02 in 10.0 mi NW 13.8 mph 23.0 mph N/A   Overcast
10:43 AM 37.8 °F 32.5 °F 29.5 °F 72% 30.02 in 10.0 mi NW 6.9 mph - N/A   Overcast
11:03 AM 37.8 °F 35.3 °F 29.8 °F 73% 30.01 in 10.0 mi North 3.5 mph - N/A   Overcast
11:23 AM 38.3 °F - 30.0 °F 72% 30.01 in 10.0 mi Calm Calm - N/A   Overcast
11:43 AM 40.1 °F 36.1 °F 27.0 °F 59% 30.01 in 10.0 mi NW 5.8 mph - N/A   Overcast
12:03 PM 40.3 °F 34.9 °F 25.3 °F 55% 30.01 in 10.0 mi NW 8.1 mph - N/A   Overcast
12:23 PM 39.9 °F 32.9 °F 21.4 °F 48% 30.00 in 10.0 mi NNW 11.5 mph 17.3 mph N/A   Overcast
12:43 PM 39.6 °F 34.0 °F 17.6 °F 41% 30.00 in 10.0 mi NNW 8.1 mph 20.7 mph N/A   Overcast
1:03 PM 39.4 °F 32.7 °F 18.3 °F 43% 30.00 in 10.0 mi NNW 10.4 mph 18.4 mph N/A   Overcast
1:23 PM 39.4 °F 30.1 °F 17.1 °F 41% 30.01 in 10.0 mi NNW 18.4 mph 23.0 mph N/A   Overcast
1:43 PM 38.8 °F 33.2 °F 16.2 °F 40% 30.00 in 10.0 mi NNW 8.1 mph 16.1 mph N/A   Scattered Clouds
2:03 PM 38.7 °F 31.8 °F 15.3 °F 39% 30.01 in 10.0 mi NW 10.4 mph 24.2 mph N/A   Scattered Clouds
2:23 PM 39.0 °F 32.3 °F 16.3 °F 40% 30.01 in 10.0 mi NNW 10.4 mph 17.3 mph N/A   Clear
2:43 PM 39.4 °F 33.8 °F 16.2 °F 39% 30.01 in 10.0 mi NW 8.1 mph 17.3 mph N/A   Mostly Cloudy
3:03 PM 39.2 °F 31.2 °F 16.2 °F 39% 30.02 in 10.0 mi NNW 13.8 mph 17.3 mph N/A   Mostly Cloudy
3:23 PM 39.6 °F 32.5 °F 16.5 °F 39% 30.03 in 10.0 mi NW 11.5 mph 18.4 mph N/A   Mostly Cloudy
3:43 PM 40.1 °F 35.3 °F 17.6 °F 40% 30.03 in 10.0 mi NW 6.9 mph - N/A   Mostly Cloudy
4:23 PM 38.3 °F 30.9 °F 17.4 °F 43% 30.05 in 10.0 mi NNW 11.5 mph 20.7 mph N/A   Overcast
4:43 PM 37.6 °F 32.3 °F 18.0 °F 45% 30.07 in 10.0 mi NW 6.9 mph 16.1 mph N/A   Overcast
5:03 PM 36.7 °F 28.9 °F 17.4 °F 46% 30.08 in 10.0 mi NW 11.5 mph 16.1 mph N/A   Scattered Clouds
5:23 PM 36.5 °F 29.7 °F 17.6 °F 46% 30.09 in 10.0 mi NNW 9.2 mph 18.4 mph N/A   Mostly Cloudy
5:43 PM 35.1 °F 29.3 °F 16.9 °F 48% 30.11 in 10.0 mi NNW 6.9 mph - N/A   Scattered Clouds
6:03 PM 34.7 °F 27.5 °F 17.4 °F 49% 30.12 in 10.0 mi NNW 9.2 mph 17.3 mph N/A   Clear
6:23 PM 34.9 °F 27.7 °F 15.6 °F 45% 30.13 in 10.0 mi NW 9.2 mph 19.6 mph N/A   Clear
6:43 PM 33.8 °F 25.3 °F 17.1 °F 50% 30.15 in 10.0 mi NW 11.5 mph 20.7 mph N/A   Scattered Clouds
7:23 PM 32.9 °F 25.9 °F 17.2 °F 53% 30.17 in 10.0 mi NW 8.1 mph - N/A   Mostly Cloudy
7:43 PM 32.5 °F 24.8 °F 16.3 °F 51% 30.18 in 10.0 mi NW 9.2 mph 17.3 mph N/A   Scattered Clouds
8:03 PM 32.0 °F 23.6 °F 15.6 °F 51% 30.19 in 10.0 mi NNW 10.4 mph 17.3 mph N/A   Clear
8:23 PM 32.0 °F 25.6 °F 15.4 °F 51% 30.20 in 10.0 mi NW 6.9 mph - N/A   Clear
8:43 PM 32.0 °F 26.4 °F 15.1 °F 50% 30.21 in 10.0 mi NW 5.8 mph - N/A   Clear
9:03 PM 31.6 °F 23.7 °F 14.0 °F 48% 30.22 in 10.0 mi NW 9.2 mph 17.3 mph N/A   Clear
9:23 PM 31.1 °F 23.1 °F 12.9 °F 47% 30.23 in 10.0 mi NW 9.2 mph - N/A   Clear
9:43 PM 31.1 °F 23.7 °F 12.0 °F 45% 30.24 in 10.0 mi NW 8.1 mph - N/A   Clear
10:03 PM 30.4 °F 24.5 °F 11.8 °F 46% 30.24 in 10.0 mi NNW 5.8 mph - N/A   Clear
10:23 PM 30.4 °F 24.5 °F 11.7 °F 46% 30.25 in 10.0 mi NW 5.8 mph - N/A   Clear
10:43 PM 30.2 °F 22.6 °F 10.4 °F 44% 30.25 in 10.0 mi NW 8.1 mph - N/A   Clear
11:03 PM 29.8 °F 22.2 °F 9.5 °F 43% 30.26 in 10.0 mi NNW 8.1 mph - N/A   Clear
11:23 PM 29.7 °F 22.0 °F 7.5 °F 39% 30.27 in 10.0 mi NW 8.1 mph - N/A   Clear
11:43 PM 29.1 °F 19.4 °F 6.3 °F 38% 30.28 in 10.0 mi NW 11.5 mph 16.1 mph N/A   Clear